ICEYE-X5 (44389 NORAD) Tracking and Keplerian Element Data

This shows tracking and keplerian element data for the satellite.

Feedback or suggestion? Click here.




ElementValue
Catalog44389
NameICEYE-X5
Epoch Orbit30638
Epoch Day35.19659005
Epoch Year2025
RAAN46.3949
Inclination97.9223
Eccentricity0.0010346
Argument of Perigee214.6941
Mean Anonmoly145.3622
Mean Motion15.25564336
Decay Rate0.00022433
L11 44389U 19038C 25035.19659005 .00022433 00000+0 88392-3 0 9995
L22 44389 97.9223 46.3949 0010346 214.6941 145.3622 15.25564336306381



Live tracking and technical data element details for ICEYE-X5 (NORAD 44389). ICEYE-X5 can be tracked NOW for your location showing map with azimuth and elevation plus other details from your city location.







IsCatalogInMostPopularTable: catalog: 44389, numindb: 345
Update: records affected: 1



GetName: 44389 ICEYE-X5

Hit Count: updated at: Wed, 18 Jun 2025 06:16:13 GMT